Port Isabel, TX

7:53 PM CST on December 15, 2017 (GMT -0600)
Port Isabel-Cameron County

Weather History for KPIL - January, 2012

Change the Weather History Date:

Thursday, January 19, 2012

  Actual Average (KBRO) Record (KBRO)
Temperature  
Mean Temperature 69 °F -  
Max Temperature 77 °F 71 °F 84 °F (1922)
Min Temperature 61 °F 52 °F 26 °F (1940)
Cooling Degree Days 4    
Growing Degree Days 19 (Base 50)    
Moisture  
Dew Point 63 °F    
Average Humidity 82    
Maximum Humidity 94    
Minimum Humidity 66    
Precipitation  
Precipitation 0.00 in - - ()
Sea Level Pressure  
Sea Level Pressure 29.99 in    
Wind  
Wind Speed 5 mph (South)    
Max Wind Speed 20 mph    
Max Gust Speed 25 mph    
Visibility 7 miles    
Events      
Averages and records for this station are not official NWS values.
T = Trace of Precipitation, MM = Missing Value Source: NWS Daily Summary

Daily Weather History Graph

Daily Weather History Graph

Search for Another Location

Airport or City:

Trip Planner

Search our weather history database for the weather conditions in past years. The results will help you decide how hot, cold, wet, or windy it might be!

Date:

Astronomy

Jan. 19, 2012 Rise Set
Actual Time 7:18 AM CST 6:02 PM CST
Civil Twilight 6:53 AM CST 6:26 PM CST
Nautical Twilight 6:25 AM CST 6:55 PM CST
Astronomical Twilight 5:57 AM CST 7:22 PM CST
Moon 3:50 AM CST (1/19) 2:41 PM CST (1/19)
Length of Visible Light 11h 33m
Length of Day
10h 44m
Waning Crescent, 15% of the Moon is Illuminated
Jan 19
Waning Crescent
Jan 23
New
Jan 30
First Quarter
Feb 7
Full
Feb 14
Last Quarter

Hourly Weather History & Observations

Time (CST) Temp. Dew Point Humidity Pressure Visibility Wind Dir Wind Speed Gust Speed Precip Events Conditions
12:53 AM 61.0 °F 55.9 °F 83% 30.09 in 9.0 mi North 4.6 mph - N/A   Overcast
1:53 AM 61.0 °F 55.9 °F 83% 30.06 in 8.0 mi Calm Calm - N/A   Overcast
2:53 AM 61.0 °F 57.0 °F 87% 30.04 in 8.0 mi North 3.5 mph - N/A   Overcast
3:53 AM 62.1 °F 57.0 °F 84% 30.04 in 8.0 mi NNW 3.5 mph - N/A   Overcast
4:32 AM 62.6 °F 57.2 °F 82% 30.03 in 7.0 mi Calm Calm - N/A   Overcast
4:53 AM 62.1 °F 57.9 °F 86% 30.03 in 8.0 mi Calm Calm - N/A   Overcast
5:53 AM 62.1 °F 57.0 °F 84% 30.03 in 8.0 mi Calm Calm - N/A   Overcast
6:53 AM 63.0 °F 57.9 °F 84% 30.04 in 7.0 mi Calm Calm - N/A   Overcast
7:35 AM 62.6 °F 57.2 °F 82% 30.05 in 6.0 mi Calm Calm - N/A   Haze
7:53 AM 63.0 °F 57.9 °F 84% 30.05 in 6.0 mi Calm Calm - N/A   Haze
8:36 AM 64.4 °F 60.8 °F 88% 30.06 in 6.0 mi Calm Calm - N/A   Haze
8:53 AM 66.0 °F 61.0 °F 84% 30.06 in 6.0 mi Calm Calm - N/A   Haze
9:10 AM 66.2 °F 62.6 °F 88% 30.06 in 7.0 mi Calm Calm - N/A   Overcast
9:42 AM 69.8 °F 62.6 °F 78% 30.06 in 7.0 mi Calm Calm - N/A   Mostly Cloudy
9:49 AM 69.8 °F 62.6 °F 78% 30.06 in 7.0 mi South 3.5 mph - N/A   Overcast
9:53 AM 71.1 °F 64.0 °F 78% 30.06 in 7.0 mi South 4.6 mph - N/A   Overcast
10:40 AM 71.6 °F 66.2 °F 83% 30.07 in 8.0 mi South 9.2 mph - N/A   Overcast
10:47 AM 71.6 °F 66.2 °F 83% 30.06 in 8.0 mi SSW 9.2 mph - N/A   Overcast
10:53 AM 72.0 °F 66.0 °F 81% 30.06 in 8.0 mi South 9.2 mph - N/A   Overcast
12:00 PM 71.6 °F 64.4 °F 78% 30.02 in 8.0 mi South 15.0 mph - N/A   Overcast
12:53 PM 73.0 °F 64.9 °F 76% 29.99 in 9.0 mi SSW 13.8 mph 23.0 mph N/A   Overcast
1:05 PM 73.4 °F 64.4 °F 73% 29.98 in 8.0 mi South 17.3 mph 20.7 mph N/A   Overcast
1:53 PM 75.0 °F 64.9 °F 71% 29.96 in 7.0 mi South 13.8 mph 23.0 mph N/A   Overcast
2:43 PM 75.2 °F 64.4 °F 69% 29.94 in 8.0 mi South 15.0 mph 25.3 mph N/A   Overcast
2:53 PM 75.9 °F 64.9 °F 69% 29.94 in 8.0 mi South 19.6 mph 25.3 mph N/A   Overcast
3:53 PM 77.0 °F 64.9 °F 66% 29.92 in 8.0 mi SSW 16.1 mph 24.2 mph N/A   Mostly Cloudy
4:53 PM 75.0 °F 64.9 °F 71% 29.92 in 8.0 mi South 11.5 mph - N/A   Mostly Cloudy
5:13 PM 75.2 °F 66.2 °F 73% 29.91 in 8.0 mi South 13.8 mph 21.9 mph N/A   Scattered Clouds
5:53 PM 73.0 °F 66.0 °F 79% 29.92 in 8.0 mi South 13.8 mph - N/A   Mostly Cloudy
6:01 PM 73.4 °F 66.2 °F 78% 29.92 in 8.0 mi South 11.5 mph 20.7 mph N/A   Scattered Clouds
6:36 PM 71.6 °F 66.2 °F 83% 29.92 in 9.0 mi South 10.4 mph - N/A   Mostly Cloudy
6:53 PM 72.0 °F 68.0 °F 87% 29.93 in 9.0 mi South 10.4 mph - N/A   Overcast
7:11 PM 71.6 °F 66.2 °F 83% 29.92 in 8.0 mi South 9.2 mph - N/A   Overcast
7:37 PM 69.8 °F 66.2 °F 88% 29.93 in 7.0 mi SSE 8.1 mph - N/A   Mostly Cloudy
7:53 PM 70.0 °F 66.9 °F 90% 29.93 in 6.0 mi SSE 6.9 mph - N/A   Mostly Cloudy
8:18 PM 68.0 °F 66.2 °F 94% 29.93 in 6.0 mi SE 4.6 mph - N/A   Mostly Cloudy
8:45 PM 68.0 °F 66.2 °F 94% 29.94 in 5.0 mi ESE 4.6 mph - N/A   Overcast
8:53 PM 68.0 °F 66.0 °F 93% 29.94 in 5.0 mi ESE 4.6 mph - N/A   Overcast
9:53 PM 70.0 °F 68.0 °F 93% 29.94 in 7.0 mi South 5.8 mph - N/A   Overcast
10:53 PM 71.1 °F 69.1 °F 93% 29.93 in 7.0 mi South 10.4 mph - N/A   Overcast
11:53 PM 72.0 °F 69.1 °F 91% 29.91 in 7.0 mi South 12.7 mph 20.7 mph N/A   Overcast